Weather History for KAKR - March, 2014

Change the Weather History Date:

Friday, March 21, 2014

  Actual Average (KCAK) Record (KCAK)
Temperature  
Mean Temperature 34 °F 39 °F  
Max Temperature 46 °F 49 °F 80 °F (2012)
Min Temperature 21 °F 30 °F 8 °F (1986)
Degree Days  
Heating Degree Days 32 26  
Month to date heating degree days 615  
Since 1 July heating degree days 5159  
Cooling Degree Days 0 0  
Month to date cooling degree days 0  
Year to date cooling degree days 0  
Moisture  
Dew Point 27 °F    
Average Humidity 81    
Maximum Humidity 96    
Minimum Humidity 63    
Precipitation  
Precipitation 0.02 in 0.10 in 1.15 in (1955)
Month to date precipitation 1.92  
Year to date precipitation 6.84  
Snow  
Snow 0.00 in 0.30 in - ()
Month to date snowfall 6.3  
Since 1 July snowfall 42.8  
Snow Depth -    
Sea Level Pressure  
Sea Level Pressure 30.04 in    
Wind  
Wind Speed 3 mph (South)    
Max Wind Speed 9 mph    
Max Gust Speed -    
Visibility 7 miles    
Events Fog , Snow    
T = Trace of Precipitation, MM = Missing Value Source: NWS Daily Summary

Daily Weather History Graph

Daily Weather History Graph

Search for Another Location

Airport or City:

Trip Planner

Search our weather history database for the weather conditions in past years. The results will help you decide how hot, cold, wet, or windy it might be!

Date:

Astronomy

Mar. 21, 2014 Rise Set
Actual Time 7:27 AM EDT 7:39 PM EDT
Civil Twilight 7:00 AM EDT 8:06 PM EDT
Nautical Twilight 6:27 AM EDT 8:38 PM EDT
Astronomical Twilight 5:55 AM EDT 9:11 PM EDT
Moon No Moon Rise 10:16 AM EDT (3/21)
Length of Visible Light 13h 06m
Length of Day
12h 11m
Waning Gibbous, 75% of the Moon is Illuminated
Mar 21
Waning Gibbous
Mar 23
Last Quarter
Mar 30
New
Apr 7
First Quarter
Apr 15
Full

Hourly Weather History & Observations

Time (EDT) Temp. Windchill Dew Point Humidity Pressure Visibility Wind Dir Wind Speed Gust Speed Precip Events Conditions
12:05 AM 30.0 °F - 24.1 °F 79% 30.02 in 10.0 mi Calm Calm - N/A   Overcast
12:54 AM 28.9 °F 25.2 °F 23.0 °F 78% 30.06 in 10.0 mi West 3.5 mph - N/A   Mostly Cloudy
1:12 AM 27.0 °F 21.6 °F 21.9 °F 81% 30.03 in 10.0 mi West 4.6 mph - N/A   Partly Cloudy
1:54 AM 27.0 °F - 21.9 °F 81% 30.06 in 10.0 mi Calm Calm - N/A   Clear
2:54 AM 28.0 °F - 21.9 °F 78% 30.06 in 10.0 mi Calm Calm - N/A   Clear
3:54 AM 26.1 °F - 21.0 °F 81% 30.06 in 10.0 mi Calm Calm - N/A   Clear
4:54 AM 25.0 °F 20.7 °F 19.9 °F 81% 30.07 in 10.0 mi SSW 3.5 mph - N/A   Clear
5:54 AM 23.0 °F - 19.0 °F 85% 30.07 in 9.0 mi Calm Calm - N/A   Clear
6:54 AM 21.9 °F - 19.0 °F 89% 30.08 in 8.0 mi Calm Calm - N/A   Clear
7:54 AM 23.0 °F - 19.9 °F 88% 30.08 in 5.0 mi Calm Calm - N/A   Partly Cloudy
8:54 AM 28.9 °F - 24.1 °F 82% 30.08 in 6.0 mi Calm Calm - N/A   Haze
9:41 AM 30.0 °F - 25.0 °F 82% 30.07 in 2.5 mi Calm Calm - 0.00 in Snow Light Snow
9:48 AM 28.4 °F 24.6 °F 24.8 °F 86% 30.08 in 0.8 mi SSW 3.5 mph - 0.00 in Snow Light Snow
9:49 AM 28.9 °F 25.2 °F 25.0 °F 85% 30.11 in 0.8 mi SW 3.5 mph - 0.00 in Snow Light Snow
9:58 AM 28.9 °F 25.2 °F 25.0 °F 85% 30.08 in 0.2 mi SW 3.5 mph - 0.00 in Fog , Snow Heavy Snow
10:15 AM 28.9 °F 23.9 °F 26.1 °F 89% 30.10 in 0.5 mi West 4.6 mph - 0.01 in Fog , Snow Snow
10:23 AM 28.0 °F - 27.0 °F 96% 30.09 in 0.2 mi Calm Calm - 0.02 in Fog , Snow Heavy Snow
10:41 AM 28.0 °F 24.2 °F 27.0 °F 96% 30.09 in 0.8 mi SSW 3.5 mph - 0.02 in Snow Light Snow
10:54 AM 28.9 °F 23.9 °F 26.1 °F 89% 30.13 in 0.8 mi SSW 4.6 mph - 0.02 in Snow Light Snow
11:04 AM 28.9 °F 25.2 °F 27.0 °F 92% 30.09 in 1.0 mi South 3.5 mph - 0.00 in Snow Light Snow
11:11 AM 28.9 °F 23.9 °F 27.0 °F 92% 30.09 in 2.0 mi South 4.6 mph - 0.00 in Snow Light Snow
11:22 AM 28.9 °F 21.9 °F 26.1 °F 89% 30.09 in 4.0 mi South 6.9 mph - 0.00 in   Overcast
11:54 AM 30.0 °F 24.1 °F 28.0 °F 92% 30.12 in 6.0 mi SSW 5.8 mph - 0.00 in   Overcast
12:13 PM 30.9 °F 27.5 °F 28.0 °F 89% 30.07 in 7.0 mi South 3.5 mph - N/A   Overcast
12:54 PM 32.0 °F 28.7 °F 27.0 °F 82% 30.10 in 8.0 mi South 3.5 mph - N/A   Overcast
1:08 PM 33.1 °F 30.0 °F 27.0 °F 78% 30.06 in 8.0 mi ESE 3.5 mph - N/A   Overcast
1:54 PM 34.0 °F 28.8 °F 28.0 °F 79% 30.08 in 7.0 mi ESE 5.8 mph - N/A   Overcast
2:54 PM 37.0 °F 31.0 °F 30.9 °F 79% 30.04 in 8.0 mi East 8.1 mph - N/A   Mostly Cloudy
3:54 PM 41.0 °F 36.4 °F 32.0 °F 70% 30.02 in 10.0 mi East 6.9 mph - N/A   Clear
4:54 PM 44.1 °F 40.8 °F 33.1 °F 65% 29.99 in 10.0 mi SSE 5.8 mph - N/A   Clear
5:54 PM 46.0 °F 41.9 °F 34.0 °F 63% 29.96 in 10.0 mi ESE 8.1 mph - N/A   Clear
6:54 PM 46.0 °F 43.1 °F 34.0 °F 63% 29.94 in 10.0 mi East 5.8 mph - N/A   Clear
7:54 PM 43.0 °F 40.3 °F 34.0 °F 71% 29.92 in 10.0 mi East 4.6 mph - N/A   Clear
8:54 PM 42.1 °F 40.2 °F 34.0 °F 73% 29.89 in 10.0 mi Variable 3.5 mph - N/A   Clear
9:54 PM 42.1 °F 37.1 °F 33.1 °F 70% 29.87 in 10.0 mi SSE 8.1 mph - N/A   Clear
10:54 PM 42.1 °F 36.6 °F 34.0 °F 73% 29.85 in 10.0 mi SSE 9.2 mph - N/A   Clear
11:54 PM 42.1 °F 37.1 °F 34.0 °F 73% 29.81 in 10.0 mi South 8.1 mph - N/A   Clear